[[{"header":{"parameterUnit":"m.s-1","parameterCategory":1,"la1":30.2991,"la2":30.254,"lo1":-89.0895,"lo2":-89.0444,"dy":0.0017,"dx":0.0017,"nx":28,"ny":28,"refTime":"2025-04-27T09:00:00:Z","depth":0,"parameterNumber":2,"parameterNumberName":"U-component_of_WINDS"},"data":[0,0,0,0,0,0,0,0,0,0,0,0,0,0,0,0,0,0,0,0,0,0,0,0,0,0,0,0,0,0,0,0,0,0,0,0,0,0,0,0,0,0,0,0,0,0,0,0,0,0,0,0,0,0,0,0,0,0,-0.4609,-0.4609,0,-0.4626,-0.4627,-0.4627,-0.4631,-0.463,-0.463,-0.463,-0.4647,-0.4647,-0.4648,0,0,0,0,0,0,0,0,0,0,0,0,0,-0.4578,-0.4579,-0.4609,-0.4609,-0.461,-0.4626,-0.4627,-0.4627,-0.4631,-0.463,-0.463,-0.463,-0.4647,-0.4647,-0.4648,0,0,0,0,0,0,0,0,0,0,0,0,0,-0.4593,-0.4579,-0.4609,-0.4614,-0.4614,-0.4626,-0.4627,-0.4627,-0.4631,-0.463,-0.463,-0.463,-0.4646,-0.4647,-0.4648,-0.4657,0,0,-0.4651,-0.4651,0,0,0,0,0,0,0,0,-0.4592,-0.4594,-0.4613,-0.4613,-0.4614,-0.4626,-0.4622,-0.4637,-0.4631,-0.4624,-0.463,-0.463,-0.464,-0.4641,-0.4645,-0.4658,-0.4658,-0.4651,-0.4651,-0.4652,-0.4652,0,0,0,0,0,0,0,-0.4591,-0.4594,-0.4616,-0.4613,-0.4614,-0.4614,-0.4616,-0.4625,-0.4633,-0.4625,-0.4625,-0.4627,-0.464,-0.4644,-0.4645,-0.4659,-0.4651,-0.4651,-0.4652,-0.4652,-0.4679,-0.4679,0,0,0,0,0,0,-0.459,-0.4593,-0.4615,-0.4616,-0.4602,-0.4615,-0.4617,-0.4622,-0.4633,-0.4634,-0.4627,-0.4627,-0.4643,-0.4644,-0.4646,-0.4657,-0.4652,-0.4652,-0.4653,-0.4679,-0.4679,-0.4679,0,0,0,0,0,0,-0.4589,-0.4592,-0.4615,-0.4605,-0.4608,-0.4616,-0.4622,-0.4623,-0.4627,-0.4635,-0.4636,-0.463,-0.4643,-0.4645,-0.4654,-0.4657,-0.4653,-0.4653,-0.4678,-0.4679,-0.4679,-0.4679,0,0,0,0,0,0,-0.4588,-0.4591,-0.4595,-0.4605,-0.4608,-0.4623,-0.4622,-0.4623,-0.4628,-0.4628,-0.4637,-0.4639,-0.4643,-0.4653,-0.4655,-0.4659,-0.4654,-0.4678,-0.4679,-0.4679,-0.4678,-0.4679,-0.4679,0,0,0,0,0,-0.4587,-0.4594,-0.4595,-0.4598,-0.4613,-0.4623,-0.4625,-0.463,-0.4628,-0.4632,-0.4637,-0.4638,-0.4657,-0.4654,-0.4656,-0.466,-0.4678,-0.4678,-0.4679,-0.4678,-0.4679,-0.4679,0,0,0,0,0,0,-0.4584,-0.4596,-0.4597,-0.4608,-0.4614,-0.4624,-0.4629,-0.463,-0.4637,-0.4637,-0.4642,-0.4644,-0.4653,-0.4658,-0.4654,-0.4669,-0.4667,-0.4668,-0.4666,-0.4667,-0.4667,-0.4666,-0.4655,0,0,0,0,0,-0.4585,-0.4593,-0.4602,-0.461,-0.4614,-0.462,-0.4625,-0.4628,-0.4635,-0.4638,-0.4644,-0.465,-0.4658,-0.4662,-0.4669,-0.4679,-0.4681,-0.4683,-0.4683,-0.4684,-0.4684,-0.4689,-0.469,-0.4681,-0.4681,-0.4681,0,0,-0.4587,-0.4594,-0.4598,-0.461,-0.4616,-0.4623,-0.4623,-0.4631,-0.4636,-0.4639,-0.4648,-0.4653,-0.466,-0.467,-0.4674,-0.4674,-0.4687,-0.4684,-0.4684,-0.4685,-0.469,-0.4691,-0.4692,-0.4681,-0.4681,-0.4681,0,0,-0.4593,-0.4599,-0.4607,-0.4613,-0.4621,-0.4626,-0.4628,-0.4637,-0.464,-0.4649,-0.4652,-0.4658,-0.467,-0.4675,-0.468,-0.4688,-0.4689,-0.469,-0.4692,-0.4697,-0.4698,-0.4699,-0.4702,-0.4703,-0.4691,-0.4691,-0.4691,0,-0.4594,-0.4606,-0.4611,-0.4619,-0.4624,-0.4627,-0.4634,-0.4639,-0.465,-0.4653,-0.4652,-0.4668,-0.4673,-0.4683,-0.4685,-0.4689,-0.4691,-0.4689,-0.4698,-0.4698,-0.4699,-0.4702,-0.4703,-0.4691,-0.4691,-0.4691,-0.4691,0,-0.4606,-0.4614,-0.4619,-0.4629,-0.4635,-0.4642,-0.4648,-0.4653,-0.4655,-0.466,-0.4669,-0.4676,-0.4684,-0.4687,-0.4689,-0.4697,-0.4697,-0.4697,-0.4695,-0.47,-0.4703,-0.4704,-0.4691,-0.4691,-0.4691,-0.4691,0,0,-0.4612,-0.4625,-0.4627,-0.4631,-0.4641,-0.4647,-0.4654,-0.4663,-0.4667,-0.4673,-0.468,-0.469,-0.469,-0.4695,-0.4697,-0.4702,-0.4708,-0.4701,-0.4701,-0.4702,-0.4717,-0.4717,-0.4718,-0.4708,-0.4709,-0.4709,-0.4716,0,-0.462,-0.4634,-0.4638,-0.465,-0.4657,-0.466,-0.4666,-0.4673,-0.4677,-0.4683,-0.4687,-0.4695,-0.4694,-0.4697,-0.4701,-0.4706,-0.4711,-0.4705,-0.4714,-0.4714,-0.4712,-0.472,-0.472,-0.4727,-0.4717,-0.4718,-0.4718,0,-0.4631,-0.4638,-0.4651,-0.4659,-0.4662,-0.4668,-0.4676,-0.4682,-0.4689,-0.4691,-0.4697,-0.4699,-0.4707,-0.4705,-0.4715,-0.4711,-0.4715,-0.4717,-0.4718,-0.4719,-0.4716,-0.4721,-0.4729,-0.473,-0.4719,-0.4719,-0.4719,0,-0.4634,-0.4647,-0.4656,-0.466,-0.467,-0.4674,-0.4678,-0.4685,-0.4689,-0.4696,-0.4699,-0.4706,-0.471,-0.4716,-0.472,-0.4718,-0.473,-0.4728,-0.4732,-0.4732,-0.4734,-0.4734,-0.4743,-0.4736,-0.4736,-0.4736,-0.4736,0,-0.4642,-0.465,-0.4657,-0.4663,-0.4671,-0.4676,-0.4684,-0.4688,-0.4694,-0.47,-0.4703,-0.4708,-0.4713,-0.4719,-0.4723,-0.473,-0.4732,-0.4734,-0.4735,-0.4734,-0.4734,-0.4737,-0.4736,-0.4737,-0.4737,-0.4737,-0.4737,0,-0.4647,-0.4653,-0.4663,-0.4671,-0.4674,-0.4679,-0.4686,-0.4692,-0.4696,-0.4703,-0.4705,-0.4711,-0.4719,-0.4723,-0.4733,-0.4735,-0.4743,-0.4744,-0.4741,-0.4741,-0.4745,-0.4744,-0.4756,-0.4758,-0.475,-0.475,-0.475,0,-0.4652,-0.4658,-0.4667,-0.4672,-0.4676,-0.4683,-0.4688,-0.4693,-0.4698,-0.4706,-0.471,-0.4717,-0.4724,-0.4735,-0.474,-0.4747,-0.4748,-0.4751,-0.4749,-0.4747,-0.4748,-0.4747,-0.4748,-0.4752,-0.4752,-0.4752,-0.4752,0,-0.4661,-0.4663,-0.467,-0.4678,-0.4684,-0.469,-0.4696,-0.47,-0.4705,-0.471,-0.4718,-0.4723,-0.4732,-0.4739,-0.4747,-0.4751,-0.4752,-0.4753,-0.4754,-0.4753,-0.4751,-0.4752,-0.4742,-0.4752,-0.4752,-0.4752,-0.4752,-0.4752,-0.4666,-0.4671,-0.4678,-0.4686,-0.4691,-0.4697,-0.4702,-0.4707,-0.4713,-0.4722,-0.4724,-0.4732,-0.4738,-0.4748,-0.4752,-0.4758,-0.4757,-0.4759,-0.476,-0.476,-0.476,-0.475,-0.4759,-0.4759,-0.4759,-0.4759,-0.4759,0,-0.4675,-0.4679,-0.4686,-0.4695,-0.4701,-0.4702,-0.4709,-0.4713,-0.472,-0.4726,-0.4732,-0.4741,-0.4748,-0.4753,-0.476,-0.4764,-0.4765,-0.4766,-0.4765,-0.4766,-0.476,-0.4758,-0.4765,-0.4765,-0.4765,-0.4765,-0.4765,-0.4765,-0.468,-0.4688,-0.4692,-0.4703,-0.4707,-0.4715,-0.4719,-0.4724,-0.4729,-0.4738,-0.4744,-0.4748,-0.4753,-0.4761,-0.4767,-0.4768,-0.4771,-0.4771,-0.4773,-0.4767,-0.4767,-0.4766,-0.4764,-0.4772,-0.4772,-0.4778,-0.4779,-0.4779]},{"header":{"parameterUnit":"m.s-1","parameterCategory":1,"la1":30.2991,"la2":30.254,"lo1":-89.0895,"lo2":-89.0444,"dy":0.0017,"dx":0.0017,"nx":28,"ny":28,"refTime":"2025-04-27T09:00:00:Z","depth":0,"parameterNumber":3,"parameterNumberName":"V-component_of_WINDS"},"data":[0,0,0,0,0,0,0,0,0,0,0,0,0,0,0,0,0,0,0,0,0,0,0,0,0,0,0,0,0,0,0,0,0,0,0,0,0,0,0,0,0,0,0,0,0,0,0,0,0,0,0,0,0,0,0,0,0,0,1.4617,1.4617,0,1.4628,1.4628,1.4628,1.4595,1.4594,1.4593,1.4592,1.4601,1.4603,1.4604,0,0,0,0,0,0,0,0,0,0,0,0,0,1.4566,1.4568,1.4617,1.4618,1.4618,1.4628,1.4628,1.4628,1.4595,1.4594,1.4593,1.4591,1.4601,1.4602,1.4604,0,0,0,0,0,0,0,0,0,0,0,0,0,1.4584,1.4568,1.4617,1.4602,1.4601,1.4628,1.4628,1.4628,1.4595,1.4594,1.4592,1.4591,1.46,1.4602,1.4604,1.4645,0,0,1.4609,1.461,0,0,0,0,0,0,0,0,1.4583,1.4586,1.4604,1.4603,1.4602,1.4609,1.4614,1.4634,1.4596,1.4597,1.4592,1.459,1.4605,1.4606,1.4611,1.4646,1.4646,1.461,1.4611,1.4611,1.4612,0,0,0,0,0,0,0,1.4582,1.4585,1.4621,1.4605,1.4603,1.4594,1.4595,1.4617,1.4609,1.4597,1.4595,1.4597,1.4604,1.461,1.4611,1.4646,1.461,1.4611,1.4612,1.4613,1.4715,1.4717,0,0,0,0,0,0,1.4583,1.4584,1.4621,1.4622,1.4589,1.4597,1.4598,1.4608,1.4609,1.4608,1.4598,1.4595,1.4608,1.4609,1.4612,1.466,1.4611,1.4613,1.4614,1.4713,1.4715,1.4717,0,0,0,0,0,0,1.4582,1.4586,1.4621,1.4602,1.4606,1.4599,1.4611,1.4609,1.4615,1.461,1.4608,1.4606,1.4606,1.4609,1.4637,1.466,1.4614,1.4616,1.4711,1.4714,1.4716,1.4758,0,0,0,0,0,0,1.4581,1.4586,1.4602,1.4603,1.4607,1.4647,1.4613,1.461,1.4618,1.4615,1.4616,1.4615,1.4605,1.4635,1.4639,1.4662,1.4617,1.4709,1.4713,1.4715,1.4755,1.4762,1.4768,0,0,0,0,0,1.4579,1.4614,1.4603,1.4608,1.4627,1.4648,1.4651,1.4639,1.462,1.4636,1.4633,1.4615,1.4657,1.4638,1.4643,1.4666,1.4708,1.4712,1.4715,1.4752,1.476,1.4767,0,0,0,0,0,0,1.4615,1.4613,1.4602,1.4638,1.4644,1.4643,1.4662,1.4649,1.4659,1.4655,1.464,1.4641,1.4672,1.4671,1.465,1.4706,1.4679,1.4684,1.4705,1.4713,1.472,1.4719,1.4618,0,0,0,0,0,1.4628,1.4645,1.4642,1.4674,1.4678,1.467,1.4678,1.4669,1.4674,1.4676,1.4674,1.468,1.4694,1.4703,1.4716,1.4754,1.4754,1.4773,1.4779,1.4784,1.4789,1.4809,1.4817,1.4729,1.4729,1.4729,0,0,1.4653,1.4654,1.4666,1.4682,1.4685,1.4703,1.4672,1.4692,1.4706,1.4679,1.4706,1.4705,1.4709,1.4743,1.4757,1.4743,1.4813,1.4789,1.4793,1.4795,1.4814,1.4822,1.4829,1.4732,1.4731,1.4731,0,0,1.4709,1.4712,1.4739,1.4743,1.4748,1.4742,1.4749,1.475,1.4748,1.4775,1.4755,1.477,1.4795,1.4799,1.4804,1.4861,1.4846,1.4866,1.49,1.492,1.4927,1.4933,1.4953,1.4961,1.487,1.487,1.487,0,1.474,1.4767,1.4754,1.4776,1.4784,1.476,1.4787,1.4791,1.48,1.4806,1.479,1.4821,1.4822,1.4856,1.487,1.4875,1.4882,1.4866,1.4927,1.4933,1.4938,1.4958,1.4965,1.4873,1.4872,1.4872,1.4872,0,1.4805,1.4824,1.4845,1.4855,1.4864,1.4889,1.4879,1.489,1.488,1.4875,1.4903,1.4903,1.4916,1.4923,1.4913,1.4956,1.4947,1.493,1.4902,1.4949,1.4967,1.4975,1.4876,1.4875,1.4874,1.4874,0,0,1.4885,1.4887,1.4895,1.4899,1.4903,1.4917,1.494,1.4953,1.4963,1.4969,1.4988,1.501,1.4993,1.4999,1.4989,1.5007,1.5052,1.4987,1.4987,1.4999,1.5099,1.5113,1.5122,1.5041,1.5043,1.5044,1.5099,0,1.494,1.4981,1.4969,1.5009,1.5027,1.5004,1.5024,1.5029,1.5025,1.5039,1.5034,1.505,1.5027,1.5031,1.5047,1.5043,1.5072,1.5039,1.5059,1.5059,1.5059,1.5131,1.5146,1.5198,1.5106,1.5107,1.5108,0,1.5011,1.5021,1.5063,1.5064,1.507,1.5089,1.5099,1.5112,1.5117,1.5113,1.5119,1.5106,1.5128,1.51,1.513,1.5108,1.5115,1.5114,1.5116,1.5118,1.5087,1.5135,1.5214,1.5222,1.5119,1.5118,1.5117,0,1.5065,1.5089,1.5117,1.5121,1.5123,1.5136,1.5138,1.514,1.5148,1.5157,1.5162,1.5174,1.518,1.5189,1.5178,1.5159,1.521,1.5181,1.5207,1.5208,1.522,1.5219,1.5301,1.5223,1.5223,1.5223,1.5223,0,1.5129,1.5156,1.5142,1.5159,1.5188,1.5175,1.5203,1.5202,1.5204,1.5221,1.5202,1.5217,1.5202,1.5216,1.5208,1.5234,1.5237,1.5234,1.5232,1.5237,1.5237,1.5242,1.5238,1.5225,1.5225,1.5224,1.5224,0,1.5195,1.5187,1.5217,1.5216,1.5216,1.5237,1.5236,1.5252,1.5247,1.5268,1.5272,1.5264,1.5279,1.5269,1.5285,1.5279,1.5314,1.5306,1.5313,1.5311,1.5338,1.5336,1.5427,1.5438,1.5352,1.5353,1.5354,0,1.5237,1.5257,1.5258,1.5268,1.527,1.5286,1.5295,1.5281,1.5291,1.5297,1.5312,1.5326,1.5336,1.5362,1.5357,1.5369,1.5362,1.5393,1.5364,1.5368,1.5363,1.5362,1.5364,1.5399,1.54,1.5401,1.5402,0,1.5311,1.5306,1.5319,1.5331,1.5342,1.535,1.5357,1.5366,1.5352,1.5364,1.538,1.5388,1.5404,1.5418,1.5428,1.5428,1.5413,1.5411,1.5417,1.5423,1.5426,1.5425,1.533,1.5409,1.5408,1.5408,1.5407,1.5407,1.5367,1.5384,1.5387,1.5402,1.5406,1.5412,1.5427,1.5424,1.5437,1.545,1.5441,1.5459,1.5462,1.5474,1.5477,1.5491,1.5478,1.5488,1.5491,1.5493,1.5497,1.5423,1.5492,1.5492,1.5492,1.5492,1.5492,0,1.5441,1.5442,1.5456,1.5466,1.5478,1.5462,1.5468,1.5479,1.5496,1.55,1.5511,1.5529,1.5543,1.5539,1.5551,1.5563,1.5556,1.5567,1.5566,1.5567,1.5508,1.5501,1.5572,1.5572,1.5572,1.5572,1.5572,1.5572,1.5481,1.5508,1.5504,1.5532,1.5533,1.5552,1.5557,1.5563,1.5566,1.5587,1.5599,1.5596,1.5597,1.5609,1.562,1.5619,1.5624,1.5637,1.5633,1.5579,1.5571,1.5563,1.5557,1.5639,1.5639,1.5691,1.5692,1.5692]}]]